EZY64CA LTAI-EGCC

Flight info

Callsign EZY64CA
Flight time N/A
Altitude 36000
Route EKNUD UQ26 TUDBU DCT NAVOD DCT INVED DCT BEGLA DCT UBUXI DCT DITIS DCT VEXIL DCT KATCE DCT AMSAN DCT RAVLO Y70 OTBED
Aircraft A320/M-SDE2E3FGHIJ1RWXYZ/LB1

Departure

Time 2026-05-06 13:24
Airport Antalya International Airport (LTAI)

Arrival

Time N/A
Airport Manchester Airport (EGCC)
Time Latitude Longitude Altitude Speed Heading
2026-05-06 12:52 36.89573 30.79803 182 ft 0 kts 185°
2026-05-06 13:11 36.89578 30.79804 181 ft 2 kts 185°
2026-05-06 13:11 36.89598 30.79806 181 ft 3 kts 181°
2026-05-06 13:11 36.89618 30.79805 181 ft 3 kts 174°
2026-05-06 13:11 36.89637 30.79801 181 ft 3 kts 163°
2026-05-06 13:12 36.89645 30.79798 181 ft 0 kts 161°
2026-05-06 13:16 36.89644 30.79799 181 ft 0 kts 160°
2026-05-06 13:16 36.89640 30.79809 181 ft 2 kts 119°
2026-05-06 13:16 36.89631 30.79854 181 ft 10 kts 99°
2026-05-06 13:17 36.89624 30.79934 181 ft 9 kts 96°
2026-05-06 13:17 36.89619 30.80000 181 ft 7 kts 96°
2026-05-06 13:17 36.89613 30.80066 181 ft 10 kts 96°
2026-05-06 13:17 36.89605 30.80155 181 ft 10 kts 96°
2026-05-06 13:18 36.89598 30.80231 181 ft 8 kts 96°
2026-05-06 13:18 36.89593 30.80290 181 ft 6 kts 96°
2026-05-06 13:18 36.89586 30.80363 181 ft 10 kts 97°
2026-05-06 13:18 36.89577 30.80463 181 ft 12 kts 96°
2026-05-06 13:19 36.89567 30.80568 181 ft 12 kts 96°
2026-05-06 13:19 36.89568 30.80666 181 ft 10 kts 69°
2026-05-06 13:19 36.89622 30.80695 181 ft 7 kts
2026-05-06 13:19 36.89671 30.80703 182 ft 9 kts
2026-05-06 13:20 36.89788 30.80720 183 ft 19 kts
2026-05-06 13:20 36.89907 30.80735 183 ft 16 kts
2026-05-06 13:20 36.90008 30.80748 189 ft 13 kts
2026-05-06 13:20 36.90092 30.80760 184 ft 11 kts
2026-05-06 13:21 36.90167 30.80771 185 ft 13 kts
2026-05-06 13:21 36.90293 30.80791 188 ft 20 kts
2026-05-06 13:21 36.90425 30.80809 186 ft 18 kts
2026-05-06 13:21 36.90541 30.80824 189 ft 16 kts
2026-05-06 13:22 36.90652 30.80838 194 ft 15 kts
2026-05-06 13:22 36.90756 30.80852 188 ft 19 kts
2026-05-06 13:22 36.90899 30.80873 188 ft 20 kts
2026-05-06 13:22 36.91028 30.80889 189 ft 17 kts
2026-05-06 13:23 36.91129 30.80933 201 ft 14 kts 54°
2026-05-06 13:23 36.91134 30.81041 190 ft 12 kts 97°
2026-05-06 13:23 36.91099 30.81129 197 ft 12 kts 149°
2026-05-06 13:23 36.91014 30.81126 194 ft 15 kts 187°
2026-05-06 13:24 36.90872 30.81105 190 ft 54 kts 186°
2026-05-06 13:24 36.90280 30.81026 186 ft 115 kts 187°
2026-05-06 13:24 36.89315 30.80889 191 ft 161 kts 186°
2026-05-06 13:24 36.87848 30.80724 901 ft 161 kts 176°
2026-05-06 13:25 36.86740 30.80894 1684 ft 160 kts 172°
2026-05-06 13:25 36.86000 30.81047 2203 ft 160 kts 172°
2026-05-06 13:25 36.84891 30.81277 2817 ft 163 kts 171°
2026-05-06 13:25 36.83760 30.81511 3326 ft 169 kts 170°
2026-05-06 13:26 36.82527 30.81760 3561 ft 191 kts 170°
2026-05-06 13:26 36.81141 30.82039 3783 ft 214 kts 170°
2026-05-06 13:26 36.79619 30.82412 4164 ft 228 kts 158°
2026-05-06 13:26 36.78148 30.83335 4501 ft 248 kts 151°
2026-05-06 13:27 36.76573 30.84339 4862 ft 268 kts 152°
2026-05-06 13:27 36.74930 30.85531 5337 ft 278 kts 137°
2026-05-06 13:27 36.73840 30.87493 6012 ft 279 kts 106°
2026-05-06 13:27 36.73513 30.89863 6712 ft 279 kts 92°
2026-05-06 13:28 36.73359 30.92289 7390 ft 283 kts 92°
2026-05-06 13:28 36.73187 30.94759 8071 ft 288 kts 92°
2026-05-06 13:28 36.72998 30.97255 8796 ft 291 kts 93°
2026-05-06 13:28 36.72798 30.99777 9523 ft 294 kts 93°
2026-05-06 13:29 36.72591 31.02324 10196 ft 297 kts 93°
2026-05-06 13:29 36.72391 31.04905 10705 ft 306 kts 90°
2026-05-06 13:29 36.72663 31.07604 10848 ft 323 kts 68°
2026-05-06 13:29 36.73774 31.10089 11009 ft 337 kts 46°
2026-05-06 13:30 36.75607 31.11909 11470 ft 340 kts 25°
2026-05-06 13:30 36.77852 31.12764 12049 ft 340 kts
2026-05-06 13:30 36.80213 31.13114 12678 ft 343 kts
2026-05-06 13:30 36.82599 31.13323 13294 ft 345 kts 356°
2026-05-06 13:31 36.84976 31.12913 13904 ft 346 kts 344°
2026-05-06 13:31 36.87231 31.11860 14440 ft 348 kts 332°
2026-05-06 13:31 36.89267 31.10209 14982 ft 351 kts 322°
2026-05-06 13:31 36.91196 31.08324 15528 ft 353 kts 322°
2026-05-06 13:32 36.93140 31.06430 16073 ft 356 kts 322°
2026-05-06 13:32 36.95100 31.04521 16610 ft 358 kts 322°
2026-05-06 13:32 36.97072 31.02598 17145 ft 361 kts 321°
2026-05-06 13:32 36.99064 31.00668 17627 ft 366 kts 323°
2026-05-06 13:33 37.01349 30.99213 17968 ft 375 kts 342°
2026-05-06 13:33 37.03938 30.98626 18429 ft 381 kts 350°
2026-05-06 13:33 37.06580 30.98197 18881 ft 384 kts 351°
2026-05-06 13:33 37.09243 30.97776 19362 ft 387 kts 351°
2026-05-06 13:34 37.11886 30.97365 19826 ft 389 kts 351°
2026-05-06 13:34 37.14578 30.96947 20286 ft 391 kts 351°
2026-05-06 13:34 37.17287 30.96522 20724 ft 394 kts 351°
2026-05-06 13:34 37.20010 30.96089 21175 ft 395 kts 350°
2026-05-06 13:35 37.22743 30.95650 21644 ft 396 kts 350°
2026-05-06 13:35 37.25483 30.95210 22129 ft 397 kts 350°
2026-05-06 13:35 37.28224 30.94767 22584 ft 398 kts 350°
2026-05-06 13:35 37.30972 30.94323 22989 ft 400 kts 350°
2026-05-06 13:36 37.33741 30.93874 23399 ft 402 kts 350°
2026-05-06 13:36 37.36522 30.93426 23769 ft 404 kts 350°
2026-05-06 13:36 37.39312 30.92979 24094 ft 405 kts 350°